Список аэропортов
Фактическая погода:

23 апреля, 12:00
Температура: +8°C (+3.8*)
Ветер: сев.-восточный 9 м/с
Давление: *751 мм
неб. 420 м
разорв. обл.
кучево-дождевые 1320 м
слаб. ливневый дождь
Время (МСК)Темп. СВетерВлажностьДавлениеОблачностьОсадки
09:00+9СВ, 10 м/с74%1007 гПаоблачно
10:00+9СВ, 9 м/с70%1005 гПаоблачнодождь
11:00+10СВ, 9 м/с74%1003 гПаоблачнодождь
12:00+12СВ, 9 м/с69%1001 гПаоблачно
13:00+13СВ, 9 м/с65%1000 гПамалооблачно
14:00+14СВ, 11 м/с60%997 гПас прояснениями
15:00+15СВ, 9 м/с55%995 гПас прояснениями
16:00+15С, 3 м/с59%996 гПаоблачнодождь
17:00+15СВ, 7 м/с64%994 гПаоблачнодождь
18:00+14С, 2 м/с68%994 гПаоблачнодождь
19:00+14ЮЗ, 7 м/с77%996 гПаоблачнодождь
20:00+12Ю, 10 м/с79%996 гПаоблачнодождь
21:00+10З, 13 м/с84%998 гПаоблачнодождь
22:00+8З, 13 м/с86%1003 гПаоблачнодождь
23:00+7З, 12 м/с88%1005 гПаоблачнодождь
24 апреля
00:00+7ЮЗ, 11 м/с85%1006 гПаоблачнодождь
01:00+7ЮЗ, 10 м/с84%1007 гПаоблачнодождь
02:00+8ЮЗ, 11 м/с84%1007 гПаоблачнодождь
03:00+8ЮЗ, 11 м/с85%1007 гПаоблачнодождь
04:00+9ЮЗ, 10 м/с84%1008 гПаоблачнодождь
05:00+9ЮЗ, 9 м/с84%1009 гПаоблачносл. дождь
06:00+9ЮЗ, 7 м/с85%1010 гПаоблачно
07:00+9ЮЗ, 7 м/с84%1010 гПаоблачно
08:00+10ЮЗ, 8 м/с82%1010 гПаоблачно
09:00+11ЮЗ, 8 м/с79%1010 гПаоблачно
10:00+12ЮЗ, 10 м/с74%1011 гПаоблачносл. дождь
11:00+11ЮЗ, 9 м/с76%1011 гПаоблачнодождь
12:00+11ЮЗ, 12 м/с73%1011 гПаоблачносл. дождь
13:00+11Ю, 13 м/с73%1011 гПаоблачно
14:00+11ЮЗ, 13 м/с70%1010 гПаоблачно
15:00+10ЮЗ, 13 м/с73%1010 гПаоблачно
16:00+10ЮЗ, 13 м/с69%1010 гПаоблачно
17:00+10ЮЗ, 13 м/с65%1011 гПаоблачно
18:00+10ЮЗ, 13 м/с65%1012 гПаоблачно
19:00+10ЮЗ, 12 м/с68%1013 гПаоблачно
20:00+9З, 10 м/с69%1014 гПаоблачно
21:00+9З, 9 м/с66%1015 гПаоблачно
22:00+9ЮЗ, 7 м/с68%1016 гПаоблачносл. дождь
23:00+9ЮЗ, 8 м/с77%1016 гПаоблачносл. дождь
25 апреля
00:00+8ЮЗ, 7 м/с78%1017 гПаоблачно
01:00+8З, 7 м/с76%1018 гПаоблачно
02:00+8З, 7 м/с76%1019 гПаоблачно
03:00+8З, 6 м/с77%1020 гПаоблачносл. дождь
04:00+8ЮЗ, 6 м/с78%1020 гПаоблачнодождь
05:00+8ЮЗ, 5 м/с80%1021 гПаоблачнодождь
06:00+8ЮЗ, 5 м/с82%1022 гПаоблачносл. дождь
07:00+9ЮЗ, 5 м/с84%1023 гПаоблачно
08:00+10З, 5 м/с82%1024 гПамалооблачно
09:00+11З, 5 м/с77%1024 гПамалооблачно